Newport, Oregon, United States (97365)
Lat: 44.64N, Lon: 124.05W
Wx Zone: ORZ002
Local Info
Past Weather Observations for Today

NOTE: This archive is for the closest National Weather Service station to Newport. Information may differ from the station used for current weather conditions.

Time Weather Temperature Dewpoint Humidity Pressure Winds Precip Visibility
18:35
Overcast
50°F / 10°C 45°F / 7°C 82% 30.04 in
(1017 mb)
NW 6.9 mph
(NW 11 kph)
- 7SM
18:15
Partly Cloudy
50°F / 10°C 46°F / 8°C 88% 30.04 in
(1017 mb)
NW 11.5 mph
(NW 19 kph)
- 7SM
17:55
Mostly Cloudy
50°F / 10°C 46°F / 8°C 88% 30.01 in
(1016 mb)
NW 12.7 mph
(NW 20 kph)
- 7SM
17:35
Overcast
50°F / 10°C 46°F / 8°C 88% 30.01 in
(1016 mb)
NW 9.2 mph
(NW 15 kph)
- 7SM
17:15
Overcast
50°F / 10°C 48°F / 9°C 94% 30.01 in
(1016 mb)
NW 11.5 mph
(NW 19 kph)
- 7SM
16:55
Overcast
50°F / 10°C 48°F / 9°C 94% 30.01 in
(1016 mb)
NW 12.7 mph
(NW 20 kph)
0.01 in
(0.25 mm)
7SM
16:35
Overcast
Fog And Mist
50°F / 10°C 50°F / 10°C 100% 29.98 in
(1015 mb)
WNW 9.2 mph
(WNW 15 kph)
0.01 in
(0.25 mm)
5SM
16:15
Overcast
Light Rain
50°F / 10°C 50°F / 10°C 100% 29.95 in
(1014 mb)
SW 29.9 mph
(SW 48 kph)
0.01 in
(0.25 mm)
1 1/2SM
15:55
Overcast
Rain
52°F / 11°C 50°F / 10°C 94% 29.95 in
(1014 mb)
SSE 19.6 mph
(SSE 32 kph)
0.03 in
(0.76 mm)
1 1/2SM
15:35
Overcast
Light Rain
52°F / 11°C 50°F / 10°C 94% 29.95 in
(1014 mb)
S 23 mph
(S 37 kph)
0.02 in
(0.51 mm)
2SM
15:15
Overcast
Light Rain
50°F / 10°C 50°F / 10°C 100% 29.95 in
(1014 mb)
SSE 26.5 mph
(SSE 43 kph)
0.02 in
(0.51 mm)
1 1/4SM
14:55
Overcast
Light Rain
52°F / 11°C 50°F / 10°C 94% 29.95 in
(1014 mb)
SSE 23 mph
(SSE 37 kph)
0.04 in
(1.02 mm)
1 1/4SM
14:35
Overcast
Light Rain
52°F / 11°C 50°F / 10°C 94% 29.95 in
(1014 mb)
SSE 25.3 mph
(SSE 41 kph)
0.02 in
(0.51 mm)
2SM
14:15
Overcast
Light Rain
52°F / 11°C 50°F / 10°C 94% 29.95 in
(1014 mb)
S 20.7 mph
(S 33 kph)
- 3SM
13:55
Overcast
Light Rain
52°F / 11°C 50°F / 10°C 94% 29.95 in
(1014 mb)
S 20.7 mph
(S 33 kph)
0.02 in
(0.51 mm)
3SM
13:35
Overcast
Light Rain
52°F / 11°C 50°F / 10°C 94% 29.95 in
(1014 mb)
SSE 21.9 mph
(SSE 35 kph)
0.01 in
(0.25 mm)
2SM
13:15
Overcast
Fog And Mist
52°F / 11°C 52°F / 11°C 100% 29.95 in
(1014 mb)
S 20.7 mph
(S 33 kph)
- 4SM
12:55
Overcast
Fog And Mist
52°F / 11°C 52°F / 11°C 100% 29.95 in
(1014 mb)
SSE 23 mph
(SSE 37 kph)
- 4SM
12:35
Overcast
Fog And Mist
52°F / 11°C 52°F / 11°C 100% 29.95 in
(1014 mb)
SSE 19.6 mph
(SSE 32 kph)
- 4SM
12:15
Overcast
Fog And Mist
52°F / 11°C 52°F / 11°C 100% 29.95 in
(1014 mb)
SSE 19.6 mph
(SSE 32 kph)
- 4SM
11:55
Overcast
Fog And Mist
52°F / 11°C 52°F / 11°C 100% 29.95 in
(1014 mb)
SW 16.1 mph
(SW 26 kph)
- 3SM
11:35
Overcast
Drizzle
52°F / 11°C 50°F / 10°C 94% 29.95 in
(1014 mb)
SSE 18.4 mph
(SSE 30 kph)
- 2SM
11:15
Overcast
Fog And Mist
52°F / 11°C 50°F / 10°C 94% 29.95 in
(1014 mb)
SSE 16.1 mph
(SSE 26 kph)
- 2 1/2SM
10:55
Overcast
Fog And Mist
52°F / 11°C 52°F / 11°C 100% 29.95 in
(1014 mb)
SSE 18.4 mph
(SSE 30 kph)
- 4SM
10:35
Mostly Cloudy
Fog And Mist
52°F / 11°C 52°F / 11°C 100% 29.95 in
(1014 mb)
SW 17.3 mph
(SW 28 kph)
- 5SM
10:15
Mostly Cloudy
52°F / 11°C 52°F / 11°C 100% 29.95 in
(1014 mb)
SSE 5.8 mph
(SSE 9 kph)
- 10SM
09:55
Overcast
Drizzle
52°F / 11°C 52°F / 11°C 100% 29.95 in
(1014 mb)
S 8.1 mph
(S 13 kph)
0.04 in
(1.02 mm)
10SM
09:35
Overcast
Rain
52°F / 11°C 50°F / 10°C 94% 29.95 in
(1014 mb)
S 12.7 mph
(S 20 kph)
0.03 in
(0.76 mm)
4SM
09:15
Overcast
Light Rain
52°F / 11°C 50°F / 10°C 94% 29.95 in
(1014 mb)
SSE 15 mph
(SSE 24 kph)
0.02 in
(0.51 mm)
3SM
08:55
Overcast
Rain
50°F / 10°C 50°F / 10°C 100% 29.95 in
(1014 mb)
SSE 12.7 mph
(SSE 20 kph)
0.08 in
(2.03 mm)
2 1/2SM
08:35
Overcast
Rain
50°F / 10°C 50°F / 10°C 100% 29.95 in
(1014 mb)
S 12.7 mph
(S 20 kph)
0.05 in
(1.27 mm)
3SM
08:15
Overcast
Light Rain
50°F / 10°C 50°F / 10°C 100% 29.95 in
(1014 mb)
S 9.2 mph
(S 15 kph)
0.02 in
(0.51 mm)
5SM
07:55
Overcast
Rain
50°F / 10°C 50°F / 10°C 100% 29.95 in
(1014 mb)
S 8.1 mph
(S 13 kph)
0.05 in
(1.27 mm)
5SM
07:35
Overcast
Light Rain
50°F / 10°C 50°F / 10°C 100% 29.95 in
(1014 mb)
S 6.9 mph
(S 11 kph)
0.03 in
(0.76 mm)
7SM
07:15
Overcast
Drizzle
50°F / 10°C 50°F / 10°C 100% 29.95 in
(1014 mb)
S 6.9 mph
(S 11 kph)
0.02 in
(0.51 mm)
5SM
06:55
Overcast
Drizzle
50°F / 10°C 50°F / 10°C 100% 29.95 in
(1014 mb)
S 6.9 mph
(S 11 kph)
0.05 in
(1.27 mm)
4SM
06:35
Overcast
Rain
50°F / 10°C 50°F / 10°C 100% 29.95 in
(1014 mb)
S 4.6 mph
(S 7 kph)
0.03 in
(0.76 mm)
5SM
06:15
Overcast
Drizzle
50°F / 10°C 50°F / 10°C 100% 29.95 in
(1014 mb)
S 3.5 mph
(S 6 kph)
0.02 in
(0.51 mm)
2 1/2SM
05:55
Overcast
Rain
50°F / 10°C 50°F / 10°C 100% 29.95 in
(1014 mb)
S 4.6 mph
(S 7 kph)
0.04 in
(1.02 mm)
3SM
05:35
Overcast
Light Rain
50°F / 10°C 48°F / 9°C 94% 29.95 in
(1014 mb)
SSE 3.5 mph
(SSE 6 kph)
0.03 in
(0.76 mm)
3SM
05:15
Overcast
Light Rain
50°F / 10°C 48°F / 9°C 94% 29.95 in
(1014 mb)
S 3.5 mph
(S 6 kph)
0.01 in
(0.25 mm)
4SM
04:55
Overcast
50°F / 10°C 48°F / 9°C 94% 29.95 in
(1014 mb)
S 3.5 mph
(S 6 kph)
- 7SM
04:35
Overcast
Drizzle
50°F / 10°C 48°F / 9°C 94% 29.98 in
(1015 mb)
Calm - 5SM
04:15
Overcast
Drizzle
50°F / 10°C 48°F / 9°C 94% 29.98 in
(1015 mb)
SSE 4.6 mph
(SSE 7 kph)
- 4SM
03:55
Overcast
Drizzle
50°F / 10°C 48°F / 9°C 94% 29.98 in
(1015 mb)
SSE 3.5 mph
(SSE 6 kph)
0.01 in
(0.25 mm)
5SM
03:35
Overcast
50°F / 10°C 48°F / 9°C 94% 29.98 in
(1015 mb)
SSE 4.6 mph
(SSE 7 kph)
- 7SM
03:15
Overcast
50°F / 10°C 48°F / 9°C 94% 29.98 in
(1015 mb)
Calm - 7SM
02:55
Overcast
50°F / 10°C 50°F / 10°C 100% 29.98 in
(1015 mb)
Calm - 7SM
02:35
Overcast
50°F / 10°C 50°F / 10°C 100% 29.98 in
(1015 mb)
S 4.6 mph
(S 7 kph)
- 7SM
02:15
Overcast
Fog And Mist
50°F / 10°C 48°F / 9°C 94% 30.01 in
(1016 mb)
S 4.6 mph
(S 7 kph)
- 5SM
01:55
Overcast
50°F / 10°C 48°F / 9°C 94% 30.01 in
(1016 mb)
S 4.6 mph
(S 7 kph)
- 7SM
01:35
Overcast
50°F / 10°C 48°F / 9°C 94% 30.01 in
(1016 mb)
S 4.6 mph
(S 7 kph)
- 7SM
01:15
Overcast
50°F / 10°C 48°F / 9°C 94% 30.01 in
(1016 mb)
S 3.5 mph
(S 6 kph)
- 7SM
00:55
Overcast
50°F / 10°C 48°F / 9°C 94% 30.01 in
(1016 mb)
S 5.8 mph
(S 9 kph)
- 7SM
00:35
Overcast
Fog And Mist
50°F / 10°C 50°F / 10°C 100% 30.04 in
(1017 mb)
Calm - 5SM
00:15
Overcast
Fog And Mist
50°F / 10°C 50°F / 10°C 100% 30.04 in
(1017 mb)
Calm - 5SM
Time Weather Temperature Dewpoint Humidity Pressure Winds Precip Visibility


Weather for websites

WeatherForYou.com, LLC is not responsible for any damages or problems caused by this service. Current weather conditions are obtained from the closest station including government and personal stations which may have varying degrees of accuracy. Weather forecasts are derived from the NOAA NDFD. Like all things, this site belongs to Jesus Christ... He just trusts me to maintain it. If you have any questions or comments email webmaster@weatherforyou.com

Copyright © 2014, WeatherForYou.com LLC. All rights reserved.